Home   Weather   Abidjan   Past weeks

Flag for Cote d'Ivoire (Ivory Coast) Past Weather in Abidjan, Cote d'Ivoire (Ivory Coast) — Yesterday and Last 2 Weeks

Now
79 °F

Light rain. Passing clouds.


Feels Like: 82 °F
Forecast: 77 / 81 °F
Wind: 12 mph from West

Location: Abidjan Airport

Current Time: Jun 27, 2017 at 5:10:59 am

Latest Report: Jun 27, 2017 at 4:30 am


Visibility: 4 mi

Pressure: 29.89 "Hg

Humidity: 89%

Dew Point: 75 °F

Location of AbidjanLocation

Past Weather in Abidjan — Graph

°F

Abidjan Temperature Yesterday

Maximum temperature yesterday: 84 °F (at 11:30 am)
Minimum temperature yesterday: 75 °F (at 4:00 am)
Average temperature yesterday: 80 °F

High & Low Weather Summary for the Past Weeks

 TemperatureHumidityPressure
High86 °F (Jun 14, 12:30 pm)100% (Jun 12, 4:02 pm)29.98 "Hg (Jun 12, 4:02 pm)
Low72 °F (Jun 12, 9:30 pm)66% (Jun 18, 1:30 pm)29.80 "Hg (Jun 18, 3:30 pm)
Average80 °F86%29.90 "Hg
* Reported Jun 12 4:00 am — Jun 27 4:00 am, Abidjan. Weather by CustomWeather, © 2017

Note: Actual official high and low records may vary slightly from our data, if they occured in-between our weather recording intervals... More about our weather records

Advertising

Abidjan Weather History for the Previous 24 Hours

Scroll right to see more
 ConditionsComfort  
Time TempWeatherWind HumidityBarometerVisibility
4:00 am
Tue, Jun 27
79 °FPartly cloudy.2 mph94%29.89 "Hg5 mi
3:30 am81 °FPartly cloudy.2 mph89%29.89 "HgN/A
3:00 am79 °FPartly cloudy.3 mph94%29.89 "HgN/A
2:30 am79 °FPartly cloudy.1 mph94%29.89 "HgN/A
2:00 am79 °FPartly cloudy.3 mph94%29.89 "HgN/A
1:00 am79 °FPassing clouds.3 mph89%29.92 "HgN/A
12:30 am81 °FPassing clouds.6 mph84%29.92 "HgN/A
12:00 am81 °FPassing clouds.6 mph84%29.92 "HgN/A
11:30 pm
Mon, Jun 26
81 °FPassing clouds.5 mph84%29.92 "HgN/A
11:00 pm81 °FPassing clouds.6 mph89%29.92 "HgN/A
10:30 pm81 °FPassing clouds.6 mph84%29.92 "HgN/A
10:00 pm81 °FPassing clouds.6 mph84%29.92 "HgN/A
9:30 pm81 °FPassing clouds.7 mph84%29.92 "HgN/A
9:00 pm81 °FPassing clouds.8 mph84%29.92 "HgN/A
8:30 pm81 °FPassing clouds.8 mph84%29.89 "HgN/A
8:00 pm81 °FPassing clouds.8 mph84%29.89 "HgN/A
7:30 pm81 °FPassing clouds.8 mph84%29.89 "HgN/A
7:00 pm81 °FPassing clouds.7 mph84%29.89 "HgN/A
6:30 pm81 °FPassing clouds.8 mph84%29.86 "HgN/A
6:00 pm82 °FPassing clouds.9 mph79%29.86 "HgN/A
5:30 pm82 °FPassing clouds.9 mph79%29.86 "HgN/A
5:00 pm82 °FPassing clouds.9 mph79%29.86 "HgN/A
4:30 pm82 °FPassing clouds.9 mph79%29.86 "HgN/A
4:00 pm82 °FPassing clouds.9 mph79%29.86 "HgN/A
3:30 pm82 °FPassing clouds.10 mph79%29.86 "HgN/A
3:00 pm84 °FPassing clouds.9 mph74%29.86 "HgN/A
2:30 pm84 °FPassing clouds.9 mph74%29.89 "HgN/A
2:00 pm82 °FPassing clouds.9 mph79%29.89 "HgN/A
1:30 pm82 °FScattered clouds.8 mph79%29.89 "Hg6 mi
1:00 pm84 °FScattered clouds.8 mph74%29.89 "Hg6 mi
12:30 pm84 °FScattered clouds.9 mph74%29.92 "Hg6 mi
12:00 pm84 °FScattered clouds.8 mph74%29.92 "Hg6 mi
11:30 am84 °FScattered clouds.8 mph74%29.92 "Hg6 mi
11:00 am82 °FBroken clouds.6 mph79%29.95 "Hg5 mi
10:30 am82 °FBroken clouds.5 mph74%29.95 "Hg5 mi
10:00 am82 °FScattered clouds.6 mph79%29.95 "Hg4 mi
9:30 am82 °FScattered clouds.5 mph79%29.95 "Hg4 mi
9:00 am81 °FScattered clouds.5 mph84%29.95 "Hg4 mi
8:30 am81 °FPassing clouds.1 mph84%29.95 "Hg4 mi
8:00 am79 °FPassing clouds.3 mph94%29.95 "Hg4 mi
7:30 am77 °FScattered clouds.2 mph94%29.92 "Hg4 mi
7:00 am77 °FScattered clouds.2 mph94%29.92 "Hg4 mi
6:30 am77 °FScattered clouds.1 mph94%29.92 "Hg4 mi
6:00 am77 °FPassing clouds.1 mph94%29.92 "Hg5 mi
5:30 am77 °FPassing clouds.1 mph94%29.92 "Hg5 mi
5:00 am77 °FPassing clouds.1 mph94%29.92 "Hg5 mi
Weather by CustomWeather, © 2017

See weather overviewHow to use our weather pages